Location: Sark
(49.4440°N, 2.3620°W)
Time: 05:56:16
(UTC+01:00)

Amateur Radio Satellites - All Passes

Search period start: 21 October 2017 05:26
Search period end: 22 October 2017 05:26
Location: Sark, 49.4440°N, 2.3620°W

Satellite Date Start Highest point End Downlink Frequencies (MHz)
Time Altitude Azimuth
DOVE 4 21 Oct 05:28:20 05:32:24 25° 92° (E) 05:36:36 437.250
CUBESAT XI-V 21 Oct 05:38:13 05:41:55 23° 268° (W) 05:45:37 437.345
STARS 21 Oct 05:42:46 05:47:08 67° 73° (ENE) 05:51:32 437.465
XW-2F 21 Oct 06:08:17 06:08:45 10° 87° (E) 06:09:12 145.980 - 146.000
LilacSat-2 21 Oct 06:13:12 06:15:11 14° 89° (E) 06:17:11 437.200
RS-15 21 Oct 06:14:44 06:26:01 39° 3° (N) 06:36:54 29.354- 29.394
XW-2D 21 Oct 06:19:29 06:21:46 15° 90° (E) 06:24:03 145.860 - 145.880
SO-50 21 Oct 06:23:15 06:25:37 14° 110° (ESE) 06:27:59 436.795
O/OREOS (USA 219) 21 Oct 06:23:22 06:28:00 67° 61° (ENE) 06:32:34 437.305
HO-68 21 Oct 06:32:20 06:34:38 12° 81° (E) 06:36:55 435.675
XW-2B 21 Oct 06:32:31 06:35:22 20° 93° (E) 06:38:12 145.730 - 145.750
ITAMSAT 1 21 Oct 06:33:02 06:37:06 23° 302° (WNW) 06:41:10 435.822/435.867
NO-84 21 Oct 06:36:46 06:40:46 39° 351° (N) 06:44:35 435.350 FM
STRAND 1 21 Oct 06:39:55 06:44:25 32° 63° (ENE) 06:48:57 437.568
KKS-1 21 Oct 06:50:33 06:52:53 14° 272° (W) 06:55:13 437.445
XW-2C 21 Oct 06:55:21 06:58:50 35° 97° (E) 07:02:18 145.795 - 145.815
FO-29 21 Oct 07:00:51 07:03:00 12° 46° (NE) 07:05:11 435.910
CUTE-I 21 Oct 07:05:30 07:10:34 40° 97° (E) 07:15:36 437.470
DOVE 4 21 Oct 07:05:32 07:10:18 52° 290° (WNW) 07:15:18 437.250
AO-7 21 Oct 07:05:35 07:12:27 30° 312° (NW) 07:19:20 .
STARS 21 Oct 07:21:19 07:23:57 15° 271° (W) 07:26:35 437.465
CUBEBUG 2 21 Oct 07:27:53 07:30:26 14° 86° (E) 07:32:57 437.445
KAITUO 1B 21 Oct 07:36:50 07:40:32 80° 105° (ESE) 07:44:13 145.475/437.950
XW-2F 21 Oct 07:39:38 07:43:22 75° 284° (WNW) 07:47:04 145.980 - 146.000
LilacSat-2 21 Oct 07:46:07 07:49:50 56° 287° (WNW) 07:53:30 437.200
NUDT-PHONESAT 21 Oct 07:50:06 07:53:46 75° 285° (WNW) 07:57:25 437.300
XW-2D 21 Oct 07:52:36 07:56:14 49° 288° (WNW) 07:59:50 145.860 - 145.880
CUTE 1.7 + AOD 2 21 Oct 07:56:24 08:00:22 39° 97° (E) 08:04:18 437.475
SO-50 21 Oct 08:00:54 08:05:24 89° 308° (NW) 08:09:57 436.795
SEEDS 21 Oct 08:02:32 08:06:12 29° 95° (E) 08:09:50 437.485
O/OREOS (USA 219) 21 Oct 08:03:55 08:06:53 17° 260° (W) 08:09:50 437.305
UWE-3 21 Oct 08:04:15 08:07:27 19° 89° (E) 08:10:35 435.000/436.395/437.385
XW-2B 21 Oct 08:06:12 08:09:41 36° 291° (WNW) 08:13:07 145.730 - 145.750
NO-84 21 Oct 08:14:51 08:18:48 42° 12° (NNE) 08:22:28 435.350 FM
UNISAT 6 21 Oct 08:16:10 08:17:39 11° 53° (NE) 08:19:07 437.425
HO-68 21 Oct 08:16:48 08:23:56 59° 102° (ESE) 08:31:01 435.675
STRAND 1 21 Oct 08:18:36 08:23:28 43° 262° (W) 08:28:23 437.568
AAUSAT CUBESAT 2 21 Oct 08:24:47 08:28:07 23° 93° (E) 08:31:26 437.432
RS-15 21 Oct 08:29:31 08:41:32 59° 36° (NE) 08:52:54 29.354- 29.394
TIGRISAT 21 Oct 08:29:46 08:32:07 14° 56° (NE) 08:34:30 435.000
XW-2C 21 Oct 08:29:56 08:32:50 21° 295° (WNW) 08:35:43 145.795 - 145.815
PCSat 21 Oct 08:35:02 08:40:04 41° 115° (ESE) 08:45:08 145.827
FO-29 21 Oct 08:41:36 08:46:47 59° 69° (ENE) 08:52:29 435.910
CUTE-I 21 Oct 08:45:42 08:50:34 36° 296° (WNW) 08:55:26 437.470
YUBILEINY 21 Oct 08:52:50 09:00:09 32° 81° (E) 09:07:31 435.215
AO-73 21 Oct 08:53:43 08:57:28 27° 93° (E) 09:01:07 145.935
AO-7 21 Oct 09:00:36 09:02:35 11° 337° (NNW) 09:04:35 .
CUBEBUG 2 21 Oct 09:02:57 09:07:40 77° 285° (WNW) 09:12:11 437.445
PRISM 21 Oct 09:08:40 09:10:41 14° 57° (ENE) 09:12:43 437.425
KAITUO 1B 21 Oct 09:12:48 09:13:57 11° 301° (WNW) 09:15:05 145.475/437.950
XW-2A 21 Oct 09:13:46 09:17:08 75° 285° (WNW) 09:20:26 145.665 - 145.685
ZACube-1 21 Oct 09:15:51 09:20:09 49° 99° (E) 09:24:19 437.345
CUTE 1.7 + AOD 2 21 Oct 09:32:36 09:36:01 24° 296° (WNW) 09:39:26 437.475
SEEDS 21 Oct 09:38:11 09:41:53 31° 293° (WNW) 09:45:34 437.485
UWE-3 21 Oct 09:39:49 09:44:17 56° 289° (WNW) 09:48:35 435.000/436.395/437.385
SO-50 21 Oct 09:42:55 09:46:28 22° 331° (NNW) 09:50:03 436.795
DELFI C3 21 Oct 09:47:07 09:49:32 15° 90° (E) 09:51:58 145.870
UNISAT 6 21 Oct 09:48:50 09:53:28 67° 72° (ENE) 09:58:09 437.425
Oscar 11 21 Oct 09:51:23 09:55:42 71° 101° (ESE) 10:00:00 .
NO-84 21 Oct 09:52:27 09:56:25 71° 213° (SSW) 10:00:03 435.350 FM
nSIGHT-1 21 Oct 09:57:52 09:59:33 14° 137° (SE) 10:01:14 .
AAUSAT CUBESAT 2 21 Oct 09:59:51 10:03:41 38° 291° (WNW) 10:07:31 437.432
TIGRISAT 21 Oct 10:03:23 10:08:04 83° 75° (ENE) 10:12:49 435.000
HO-68 21 Oct 10:04:57 10:11:23 36° 303° (WNW) 10:17:46 435.675
PCSat 21 Oct 10:18:19 10:23:29 43° 316° (NW) 10:28:40 145.827
EO-88 21 Oct 10:20:42 10:23:13 18° 92° (E) 10:25:43 145.990 - 145.960
FO-29 21 Oct 10:28:22 10:32:29 23° 271° (W) 10:36:52 435.910
AO-73 21 Oct 10:29:45 10:33:47 36° 293° (WNW) 10:37:42 145.935
ISS 21 Oct 10:31:27 10:34:02 22° 142° (SE) 10:36:38 437.550
Max Valier Satellite 21 Oct 10:31:36 10:34:56 31° 96° (E) 10:38:12 145.860
EO-79 21 Oct 10:39:14 10:41:25 14° 57° (ENE) 10:43:37 145.935-145.965
PRISM 21 Oct 10:41:21 10:45:23 78° 256° (WSW) 10:49:29 437.425
CUBEBUG 2 21 Oct 10:41:27 10:43:26 13° 305° (NW) 10:45:24 437.445
RS-15 21 Oct 10:42:37 10:54:15 60° 243° (WSW) 11:05:15 29.354- 29.394
POLYITAN 1 21 Oct 10:43:50 10:46:19 15° 58° (ENE) 10:48:49 437.675
YUBILEINY 21 Oct 10:47:40 10:56:19 68° 284° (WNW) 11:05:05 435.215
ZACube-1 21 Oct 10:52:46 10:56:07 22° 298° (WNW) 10:59:24 437.345
QB50P2 21 Oct 11:03:01 11:06:27 24° 63° (ENE) 11:09:54 145.880/145.840
NANOSAT C BR1 21 Oct 11:05:43 11:08:55 21° 62° (ENE) 11:12:09 145.865
DUCHIFAT 1 21 Oct 11:15:49 11:19:11 23° 63° (ENE) 11:22:33 145.980
DELFI C3 21 Oct 11:20:45 11:24:37 55° 288° (WNW) 11:28:30 145.870
AIST 2D 21 Oct 11:22:47 11:26:16 74° 75° (ENE) 11:29:47 435.315
SO-50 21 Oct 11:26:43 11:28:35 12° 356° (N) 11:30:27 436.795
UNISAT 6 21 Oct 11:27:32 11:30:38 17° 271° (W) 11:33:45 437.425
Oscar 11 21 Oct 11:28:43 11:31:20 16° 301° (WNW) 11:33:57 .
NO-84 21 Oct 11:31:17 11:33:05 13° 233° (SW) 11:34:51 435.350 FM
nSIGHT-1 21 Oct 11:32:10 11:35:20 62° 156° (SSE) 11:38:30 .
TIGRISAT 21 Oct 11:42:58 11:45:22 14° 273° (W) 11:47:47 435.000
BEESAT 3 21 Oct 11:49:12 11:51:42 16° 113° (ESE) 11:54:13 437.485
EO-88 21 Oct 11:53:38 11:57:03 40° 290° (WNW) 12:00:28 145.990 - 145.960
HO-68 21 Oct 11:55:52 11:57:05 10° 326° (NW) 11:58:19 435.675
ESTCUBE 1 21 Oct 11:59:57 12:03:44 26° 94° (E) 12:07:29 437.505/2401.250
PCSat 21 Oct 12:05:02 12:08:20 16° 340° (NNW) 12:11:37 145.827
Max Valier Satellite 21 Oct 12:05:39 12:08:37 23° 294° (WNW) 12:11:35 145.860
ISS 21 Oct 12:06:56 12:10:12 89° 152° (SSE) 12:13:29 437.550
M-CUBED/EXP-1 PRIME 21 Oct 12:11:50 12:13:15 12° 54° (NE) 12:14:39 437.505
EO-79 21 Oct 12:12:17 12:16:34 84° 257° (WSW) 12:20:54 145.935-145.965
POLYITAN 1 21 Oct 12:17:16 12:21:33 75° 256° (WSW) 12:25:53 437.675
Oscar 19 21 Oct 12:23:37 12:27:34 23° 59° (ENE) 12:31:30 437.125/150
SPROUT 21 Oct 12:31:51 12:34:22 15° 89° (E) 12:36:51 437.525
AO-7 21 Oct 12:36:21 12:40:42 16° 33° (NNE) 12:45:02 .
QB50P2 21 Oct 12:37:56 12:42:01 42° 262° (W) 12:46:08 145.880/145.840
NANOSAT C BR1 21 Oct 12:40:12 12:44:19 49° 260° (W) 12:48:29 145.865
LO-87 21 Oct 12:40:18 12:43:57 81° 285° (WNW) 12:47:35 145.935 - 145.965
YUBILEINY 21 Oct 12:49:23 12:55:07 19° 310° (NW) 13:00:54 435.215
DUCHIFAT 1 21 Oct 12:50:33 12:54:36 43° 261° (W) 12:58:42 145.980
BUGSAT 1 21 Oct 12:54:37 12:58:45 61° 72° (ENE) 13:02:58 437.445
RS-15 21 Oct 12:58:03 13:03:49 15° 268° (W) 13:09:28 29.354- 29.394
Gurwin Techsat 1B 21 Oct 13:00:51 13:05:31 32° 63° (ENE) 13:10:12 435.225
SO-50 21 Oct 13:07:56 13:10:52 16° 20° (NNE) 13:13:50 436.795
nSIGHT-1 21 Oct 13:08:31 13:11:41 57° 355° (N) 13:14:50 .
BEESAT 2 21 Oct 13:10:32 13:14:06 31° 119° (ESE) 13:17:44 435.950
VELOX 1 21 Oct 13:22:07 13:26:06 32° 96° (E) 13:30:05 145.980
AO-85 21 Oct 13:23:48 13:27:07 27° 117° (ESE) 13:30:33 145.980
BEESAT 3 21 Oct 13:24:46 13:28:46 70° 311° (NW) 13:32:49 437.485
ESTCUBE 1 21 Oct 13:36:28 13:40:39 40° 292° (WNW) 13:44:50 437.505/2401.250
ISS 21 Oct 13:43:36 13:46:50 55° 1° (N) 13:50:03 437.550
M-CUBED/EXP-1 PRIME 21 Oct 13:44:01 13:47:19 60° 252° (WSW) 13:50:33 437.505
PCSat 21 Oct 13:51:54 13:54:07 12° 6° (N) 13:56:20 145.827
Oscar 19 21 Oct 14:01:20 14:06:28 64° 258° (WSW) 14:11:36 437.125/150
SPROUT 21 Oct 14:06:25 14:10:42 66° 288° (WNW) 14:14:58 437.525
AO-7 21 Oct 14:23:44 14:31:28 46° 57° (ENE) 14:39:13 .
DX 1 21 Oct 14:25:28 14:29:32 36° 98° (E) 14:33:34 434.975-435.025
BUGSAT 1 21 Oct 14:31:56 14:34:31 16° 270° (W) 14:37:07 437.445
ITAMSAT 1 21 Oct 14:37:01 14:41:14 26° 59° (ENE) 14:45:28 435.822/435.867
Gurwin Techsat 1B 21 Oct 14:40:17 14:45:20 44° 262° (W) 14:50:26 435.225
50 SAT 21 Oct 14:42:43 14:46:03 70° 103° (ESE) 14:49:20 437.505
nSIGHT-1 21 Oct 14:44:57 14:48:10 76° 16° (NNE) 14:51:22 .
UKube-1 21 Oct 14:47:33 14:51:37 39° 98° (E) 14:55:40 .
SO-50 21 Oct 14:47:55 14:52:23 49° 43° (NE) 14:56:54 436.795
BEESAT 2 21 Oct 14:47:59 14:51:46 38° 318° (NW) 14:55:37 435.950
VELOX 1 21 Oct 14:58:34 15:02:32 33° 294° (WNW) 15:06:30 145.980
AO-85 21 Oct 15:03:38 15:07:21 40° 318° (NW) 15:11:14 145.980
BEESAT 3 21 Oct 15:04:21 15:07:02 17° 333° (NNW) 15:09:43 437.485
ISS 21 Oct 15:20:10 15:23:27 81° 199° (SSW) 15:26:43 437.550
PCSat 21 Oct 15:35:17 15:39:36 23° 32° (NNE) 15:43:54 145.827
MOZHAYETS 4 21 Oct 15:38:37 15:42:17 23° 92° (E) 15:45:55
DX 1 21 Oct 16:01:51 16:05:37 29° 296° (WNW) 16:09:21 434.975-435.025
ITAMSAT 1 21 Oct 16:15:16 16:20:22 57° 259° (W) 16:25:31 435.822/435.867
AO-7 21 Oct 16:16:05 16:24:09 53° 258° (WSW) 16:32:15 .
ITUPSAT 1 21 Oct 16:16:41 16:21:17 44° 99° (E) 16:25:51 437.325
50 SAT 21 Oct 16:17:17 16:17:50 10° 301° (WNW) 16:18:23 437.505
nSIGHT-1 21 Oct 16:21:24 16:24:16 30° 214° (SW) 16:27:07 .
UKube-1 21 Oct 16:23:52 16:27:29 26° 297° (WNW) 16:31:05 .
SO-50 21 Oct 16:28:40 16:32:41 30° 242° (WSW) 16:36:44 436.795
BEESAT 2 21 Oct 16:28:45 16:30:36 13° 341° (NNW) 16:32:28 435.950
BEESAT 21 Oct 16:31:26 16:36:12 61° 102° (ESE) 16:40:55 436.000
DOVE 4 21 Oct 16:38:13 16:42:01 33° 66° (ENE) 16:46:01 437.250
AO-85 21 Oct 16:46:53 16:48:53 13° 342° (NNW) 16:50:55 145.980
XW-2F 21 Oct 16:53:14 16:54:10 11° 58° (ENE) 16:55:07 145.980 - 146.000
CUTE-I 21 Oct 16:54:00 16:57:31 18° 55° (NE) 17:01:03 437.470
ISS 21 Oct 16:57:08 16:59:34 19° 219° (SW) 17:02:00 437.550
LilacSat-2 21 Oct 16:59:22 17:01:28 14° 61° (ENE) 17:03:32 437.200
KKS-1 21 Oct 17:00:33 17:01:29 11° 86° (E) 17:02:25 437.445
NUDT-PHONESAT 21 Oct 17:02:42 17:03:04 10° 58° (ENE) 17:03:25 437.300
XW-2D 21 Oct 17:04:58 17:07:14 15° 62° (ENE) 17:09:31 145.860 - 145.880
HO-68 21 Oct 17:05:27 17:10:02 18° 45° (NE) 17:14:37 435.675
MOZHAYETS 4 21 Oct 17:15:16 17:19:41 46° 291° (WNW) 17:24:01
XW-2B 21 Oct 17:17:51 17:20:38 20° 64° (ENE) 17:23:25 145.730 - 145.750
PCSat 21 Oct 17:18:20 17:23:48 83° 54° (NE) 17:29:14 145.827
CUBESAT XI-V 21 Oct 17:28:56 17:33:31 64° 101° (ESE) 17:38:05 437.345
XW-2C 21 Oct 17:40:23 17:43:49 33° 68° (ENE) 17:47:14 145.795 - 145.815
ITUPSAT 1 21 Oct 17:54:52 17:58:56 28° 298° (WNW) 18:02:58 437.325
BEESAT 21 Oct 18:09:59 18:13:34 21° 301° (WNW) 18:17:08 436.000
DOVE 4 21 Oct 18:16:04 18:19:45 29° 266° (W) 18:23:38 437.250
AO-7 21 Oct 18:17:14 18:18:57 11° 280° (W) 18:20:41 .
KAITUO 1B 21 Oct 18:20:15 18:23:57 67° 74° (ENE) 18:27:40 145.475/437.950
BEESAT 3 21 Oct 18:23:37 18:25:31 13° 21° (NNE) 18:27:24 437.485
XW-2F 21 Oct 18:23:53 18:27:41 87° 261° (W) 18:31:28 145.980 - 146.000
CUBEBUG 2 21 Oct 18:29:19 18:32:53 22° 61° (ENE) 18:36:28 437.445
AO-85 21 Oct 18:30:07 18:31:09 11° 8° (N) 18:32:11 145.980
LilacSat-2 21 Oct 18:31:29 18:35:17 63° 259° (W) 18:39:05 437.200
CUTE-I 21 Oct 18:31:34 18:36:54 87° 258° (WSW) 18:42:17 437.470
NUDT-PHONESAT 21 Oct 18:32:34 18:36:18 89° 48° (NE) 18:40:02 437.300
KKS-1 21 Oct 18:34:14 18:38:46 83° 106° (ESE) 18:43:15 437.445
XW-2D 21 Oct 18:37:17 18:41:01 56° 259° (W) 18:44:46 145.860 - 145.880
ZACube-1 21 Oct 18:43:02 18:44:03 11° 54° (NE) 18:45:05 437.345
HO-68 21 Oct 18:49:27 18:56:32 66° 67° (ENE) 19:03:40 435.675
XW-2B 21 Oct 18:50:57 18:54:34 41° 262° (W) 18:58:11 145.730 - 145.750
CUTE 1.7 + AOD 2 21 Oct 18:52:43 18:56:47 47° 71° (ENE) 19:00:50 437.475
YUBILEINY 21 Oct 18:56:16 19:02:42 22° 54° (NE) 19:09:07 435.215
SEEDS 21 Oct 18:57:57 19:01:44 34° 68° (ENE) 19:05:31 437.485
PCSat 21 Oct 19:02:54 19:06:32 18° 254° (WSW) 19:10:09 145.827
STARS 21 Oct 19:03:49 19:08:17 71° 103° (ESE) 19:12:42 437.465
UWE-3 21 Oct 19:04:37 19:08:31 27° 64° (ENE) 19:12:25 435.000/436.395/437.385
CUBESAT XI-V 21 Oct 19:07:14 19:10:28 19° 300° (WNW) 19:13:41 437.345
XW-2C 21 Oct 19:14:59 19:18:03 23° 266° (W) 19:21:08 145.795 - 145.815
Oscar 11 21 Oct 19:16:42 19:18:41 13° 57° (ENE) 19:20:39 .
AAUSAT CUBESAT 2 21 Oct 19:18:44 19:22:11 27° 65° (ENE) 19:25:38 437.432
BEESAT 2 21 Oct 19:46:35 19:49:27 18° 29° (NNE) 19:52:18 435.950
XW-2A 21 Oct 19:48:17 19:51:40 68° 75° (ENE) 19:55:04 145.665 - 145.685
AO-73 21 Oct 19:52:33 19:56:45 37° 67° (ENE) 20:00:55 145.935
KAITUO 1B 21 Oct 19:57:04 19:58:23 11° 272° (W) 19:59:40 145.475/437.950
BEESAT 3 21 Oct 20:00:16 20:04:05 41° 42° (NE) 20:07:50 437.485
CUBEBUG 2 21 Oct 20:04:26 20:09:05 59° 260° (W) 20:13:48 437.445
AO-85 21 Oct 20:09:40 20:13:06 22° 32° (NNE) 20:16:44 145.980
KKS-1 21 Oct 20:12:09 20:14:42 15° 303° (WNW) 20:17:16 437.445
ZACube-1 21 Oct 20:14:55 20:19:28 65° 73° (ENE) 20:24:01 437.345
CUTE-I 21 Oct 20:14:59 20:17:45 14° 274° (W) 20:20:31 437.470
STRAND 1 21 Oct 20:24:18 20:29:20 47° 99° (E) 20:34:17 437.568
CUTE 1.7 + AOD 2 21 Oct 20:29:44 20:32:51 20° 269° (W) 20:35:59 437.475
SEEDS 21 Oct 20:33:55 20:37:28 26° 266° (W) 20:41:01 437.485
DELFI C3 21 Oct 20:36:34 20:39:05 17° 61° (ENE) 20:41:36 145.870
HO-68 21 Oct 20:38:40 20:44:47 30° 267° (W) 20:50:58 435.675
O/OREOS (USA 219) 21 Oct 20:40:08 20:44:13 33° 106° (ESE) 20:48:21 437.305
UWE-3 21 Oct 20:40:18 20:44:45 44° 262° (W) 20:49:15 435.000/436.395/437.385
STARS 21 Oct 20:41:16 20:44:07 17° 302° (WNW) 20:46:56 437.465
Oscar 11 21 Oct 20:49:48 20:54:09 89° 74° (ENE) 20:58:31 .
YUBILEINY 21 Oct 20:52:20 21:01:11 78° 79° (ENE) 21:10:01 435.215
AAUSAT CUBESAT 2 21 Oct 20:53:47 20:57:32 34° 264° (W) 21:01:17 437.432
EO-88 21 Oct 21:02:40 21:04:56 16° 62° (ENE) 21:07:13 145.990 - 145.960
Max Valier Satellite 21 Oct 21:14:15 21:17:27 27° 67° (ENE) 21:20:39 145.860
BEESAT 2 21 Oct 21:23:45 21:27:50 79° 50° (NE) 21:31:51 435.950
AO-73 21 Oct 21:29:00 21:33:01 29° 266° (W) 21:37:01 145.935
FO-29 21 Oct 21:29:11 21:35:40 43° 97° (E) 21:42:46 435.910
BEESAT 3 21 Oct 21:38:05 21:41:30 28° 242° (WSW) 21:44:51 437.485
UNISAT 6 21 Oct 21:38:52 21:39:58 11° 84° (E) 21:41:04 437.425
AO-85 21 Oct 21:49:34 21:54:02 89° 232° (SW) 21:58:53 145.980
TIGRISAT 21 Oct 21:52:14 21:54:35 14° 87° (E) 21:56:54 435.000
ZACube-1 21 Oct 21:53:10 21:56:09 17° 271° (W) 21:59:11 437.345
STRAND 1 21 Oct 22:03:53 22:08:18 29° 298° (WNW) 22:12:41 437.568
DELFI C3 21 Oct 22:09:37 22:13:27 54° 260° (W) 22:17:19 145.870
O/OREOS (USA 219) 21 Oct 22:19:22 22:23:36 36° 306° (NW) 22:27:52 437.305
PRISM 21 Oct 22:20:36 22:21:30 11° 87° (E) 22:22:24 437.425
Oscar 11 21 Oct 22:29:39 22:30:56 11° 274° (W) 22:32:13 .
EO-88 21 Oct 22:34:41 22:38:14 49° 260° (W) 22:41:48 145.990 - 145.960
Max Valier Satellite 21 Oct 22:48:00 22:51:13 27° 265° (W) 22:54:28 145.860
YUBILEINY 21 Oct 22:50:05 22:57:06 28° 281° (W) 23:04:08 435.215
BEESAT 2 21 Oct 23:02:50 23:05:00 14° 249° (WSW) 23:07:09 435.950
ESTCUBE 1 21 Oct 23:03:12 23:07:23 39° 67° (ENE) 23:11:34 437.505/2401.250
RS-15 21 Oct 23:04:01 23:10:55 17° 94° (E) 23:17:46 29.354- 29.394
UNISAT 6 21 Oct 23:12:47 23:17:27 82° 103° (ESE) 23:21:59 437.425
FO-29 21 Oct 23:14:20 23:20:46 49° 294° (WNW) 23:27:52 435.910
LO-87 21 Oct 23:19:43 23:23:19 76° 75° (ENE) 23:26:58 145.935 - 145.965
TIGRISAT 21 Oct 23:27:14 23:31:54 80° 285° (WNW) 23:36:26 435.000
SPROUT 21 Oct 23:28:50 23:32:02 21° 62° (ENE) 23:35:14 437.525
AO-85 21 Oct 23:31:21 23:33:56 15° 248° (WSW) 23:36:36 145.980
PRISM 21 Oct 23:53:14 23:57:23 87° 282° (WNW) 00:01:31 437.425
EO-79 21 Oct 23:54:28 23:56:10 12° 87° (E) 23:57:51 145.935-145.965
POLYITAN 1 21 Oct 23:59:13 00:01:23 14° 88° (E) 00:03:31 437.675
AIST 2D 22 Oct 00:16:27 00:19:50 48° 99° (E) 00:23:12 435.315
QB50P2 22 Oct 00:18:38 00:22:04 23° 93° (E) 00:25:27 145.880/145.840
NANOSAT C BR1 22 Oct 00:20:36 00:23:45 20° 91° (E) 00:26:52 145.865
VELOX 1 22 Oct 00:23:03 00:27:14 47° 69° (ENE) 00:31:29 145.980
DUCHIFAT 1 22 Oct 00:30:25 00:33:44 22° 92° (E) 00:37:00 145.980
ESTCUBE 1 22 Oct 00:40:30 00:44:18 26° 266° (W) 00:48:05 437.505/2401.250
UNISAT 6 22 Oct 00:50:47 00:53:32 16° 303° (WNW) 00:56:15 437.425
FO-29 22 Oct 01:01:45 01:04:28 13° 314° (NW) 01:07:17 435.910
SPROUT 22 Oct 01:03:25 01:07:36 51° 260° (W) 01:11:49 437.525
TIGRISAT 22 Oct 01:05:42 01:07:48 13° 305° (NW) 01:09:51 435.000
RS-15 22 Oct 01:08:45 01:20:45 63° 118° (ESE) 01:32:43 29.354- 29.394
50 SAT 22 Oct 01:14:57 01:18:04 43° 71° (ENE) 01:21:13 437.505
DX 1 22 Oct 01:24:41 01:28:54 54° 70° (ENE) 01:33:09 434.975-435.025
EO-79 22 Oct 01:28:12 01:32:30 81° 286° (WNW) 01:36:45 145.935-145.965
PRISM 22 Oct 01:30:24 01:31:59 12° 304° (NW) 01:33:35 437.425
POLYITAN 1 22 Oct 01:33:23 01:37:40 72° 287° (WNW) 01:41:53 437.675
UKube-1 22 Oct 01:45:38 01:49:51 57° 71° (ENE) 01:54:05 .
AIST 2D 22 Oct 01:50:39 01:52:39 15° 297° (WNW) 01:54:39 435.315
ITUPSAT 1 22 Oct 01:52:28 01:54:58 14° 54° (NE) 01:57:29 437.325
QB50P2 22 Oct 01:53:59 01:58:01 41° 291° (WNW) 02:02:01 145.880/145.840
NANOSAT C BR1 22 Oct 01:55:36 01:59:43 48° 290° (WNW) 02:03:47 145.865
VELOX 1 22 Oct 02:00:34 02:03:56 21° 268° (W) 02:07:20 145.980
DUCHIFAT 1 22 Oct 02:05:33 02:09:35 43° 291° (WNW) 02:13:35 145.980
BEESAT 22 Oct 02:06:04 02:09:18 18° 57° (ENE) 02:12:33 436.000
BUGSAT 1 22 Oct 02:07:11 02:11:23 58° 101° (ESE) 02:15:31 437.445
Oscar 19 22 Oct 02:08:39 02:13:15 32° 95° (E) 02:17:49 437.125/150
MOZHAYETS 4 22 Oct 02:44:08 02:48:23 37° 67° (ENE) 02:52:38
NO-84 22 Oct 02:47:57 02:51:00 19° 130° (SE) 02:54:02 435.350 FM
50 SAT 22 Oct 02:48:58 02:50:37 13° 269° (W) 02:52:16 437.505
M-CUBED/EXP-1 PRIME 22 Oct 02:51:26 02:54:47 39° 106° (ESE) 02:58:21 437.505
Gurwin Techsat 1B 22 Oct 02:51:40 02:56:54 53° 101° (E) 03:02:06 435.225
CUBESAT XI-V 22 Oct 03:01:13 03:03:55 16° 57° (ENE) 03:06:37 437.345
DX 1 22 Oct 03:02:22 03:05:24 19° 269° (W) 03:08:29 434.975-435.025
EO-79 22 Oct 03:06:00 03:07:32 12° 305° (NW) 03:09:03 145.935-145.965
POLYITAN 1 22 Oct 03:11:43 03:12:39 11° 306° (NW) 03:13:34 437.675
RS-15 22 Oct 03:21:28 03:33:39 59° 324° (NW) 03:45:39 29.354- 29.394
UKube-1 22 Oct 03:23:21 03:26:13 17° 269° (W) 03:29:07 .
ITUPSAT 1 22 Oct 03:27:14 03:32:03 82° 74° (ENE) 03:36:54 437.325
BEESAT 22 Oct 03:41:45 03:46:33 74° 257° (WSW) 03:51:22 436.000
BUGSAT 1 22 Oct 03:43:24 03:46:20 18° 300° (WNW) 03:49:13 437.445
Oscar 19 22 Oct 03:47:53 03:52:40 40° 294° (WNW) 03:57:25 437.125/150
KKS-1 22 Oct 04:01:23 04:04:26 18° 59° (ENE) 04:07:30 437.445
AO-7 22 Oct 04:12:25 04:20:13 42° 98° (E) 04:27:58 .
MOZHAYETS 4 22 Oct 04:21:30 04:25:35 30° 265° (W) 04:29:41
NO-84 22 Oct 04:23:39 04:27:58 81° 148° (SSE) 04:32:10 435.350 FM
ITAMSAT 1 22 Oct 04:23:41 04:28:32 37° 97° (E) 04:33:21 435.822/435.867
M-CUBED/EXP-1 PRIME 22 Oct 04:26:26 04:29:04 20° 301° (WNW) 04:31:49 437.505
STARS 22 Oct 04:30:08 04:32:46 16° 57° (ENE) 04:35:23 437.465
Gurwin Techsat 1B 22 Oct 04:32:08 04:36:34 28° 299° (WNW) 04:41:00 435.225
CUBESAT XI-V 22 Oct 04:36:03 04:40:41 83° 257° (WSW) 04:45:20 437.345
O/OREOS (USA 219) 22 Oct 05:06:35 05:10:13 22° 47° (NE) 05:13:50 437.305
ITUPSAT 1 22 Oct 05:07:54 05:10:30 14° 272° (W) 05:13:07 437.325
BEESAT 22 Oct 05:24:46 05:25:10 10° 275° (W) 05:25:34 436.000
